owner,sensor,date,latitude,longitude,vertical_datum,sea_water_temperature,qcFlag 
WAVCIS,ioos:station:WAVCIS:CSI16:1,2011-07-01T00:00:00Z,29.4012,-89.0355,10.0,30.173,11111222 
WAVCIS,ioos:station:WAVCIS:CSI16:1,2011-07-01T00:15:00Z,29.4012,-89.0355,10.0,30.797,11111222 
WAVCIS,ioos:station:WAVCIS:CSI16:1,2011-07-01T00:30:00Z,29.4012,-89.0355,10.0,30.401,11111222 
WAVCIS,ioos:station:WAVCIS:CSI16:1,2011-07-01T00:45:00Z,29.4012,-89.0355,10.0,30.193,11111222 
WAVCIS,ioos:station:WAVCIS:CSI16:1,2011-07-01T01:00:00Z,29.4012,-89.0355,10.0,30.014,11111222 
WAVCIS,ioos:station:WAVCIS:CSI16:1,2011-07-01T01:15:00Z,29.4012,-89.0355,10.0,29.819,11111222 
WAVCIS,ioos:station:WAVCIS:CSI16:1,2011-07-01T01:30:00Z,29.4012,-89.0355,10.0,29.786,11111222 
WAVCIS,ioos:station:WAVCIS:CSI16:1,2011-07-01T01:45:00Z,29.4012,-89.0355,10.0,29.854,11111222 
WAVCIS,ioos:station:WAVCIS:CSI16:1,2011-07-01T02:00:00Z,29.4012,-89.0355,10.0,29.969,11111222 
WAVCIS,ioos:station:WAVCIS:CSI16:1,2011-07-01T02:15:00Z,29.4012,-89.0355,10.0,29.539,11111222 
WAVCIS,ioos:station:WAVCIS:CSI16:1,2011-07-01T02:30:00Z,29.4012,-89.0355,10.0,29.509,11111222 
WAVCIS,ioos:station:WAVCIS:CSI16:1,2011-07-01T02:45:00Z,29.4012,-89.0355,10.0,29.532,11111222 
WAVCIS,ioos:station:WAVCIS:CSI16:1,2011-07-01T03:00:00Z,29.4012,-89.0355,10.0,29.406,11111222 
WAVCIS,ioos:station:WAVCIS:CSI16:1,2011-07-01T03:15:00Z,29.4012,-89.0355,10.0,29.535,11111222 
WAVCIS,ioos:station:WAVCIS:CSI16:1,2011-07-01T03:30:00Z,29.4012,-89.0355,10.0,29.751,11111222 
WAVCIS,ioos:station:WAVCIS:CSI16:1,2011-07-01T03:45:00Z,29.4012,-89.0355,10.0,29.997,11111222 
WAVCIS,ioos:station:WAVCIS:CSI16:1,2011-07-01T04:00:00Z,29.4012,-89.0355,10.0,30.032,11111222 
WAVCIS,ioos:station:WAVCIS:CSI16:1,2011-07-01T04:15:00Z,29.4012,-89.0355,10.0,31.163,11111222 
WAVCIS,ioos:station:WAVCIS:CSI16:1,2011-07-01T04:30:00Z,29.4012,-89.0355,10.0,30.276,11111222 
WAVCIS,ioos:station:WAVCIS:CSI16:1,2011-07-01T04:45:00Z,29.4012,-89.0355,10.0,30.028,11111222 
WAVCIS,ioos:station:WAVCIS:CSI16:1,2011-07-01T05:00:00Z,29.4012,-89.0355,10.0,29.343,11111222 
WAVCIS,ioos:station:WAVCIS:CSI16:1,2011-07-01T05:15:00Z,29.4012,-89.0355,10.0,28.931,11111222 
WAVCIS,ioos:station:WAVCIS:CSI16:1,2011-07-01T05:30:00Z,29.4012,-89.0355,10.0,28.814,11111222 
WAVCIS,ioos:station:WAVCIS:CSI16:1,2011-07-01T05:45:00Z,29.4012,-89.0355,10.0,28.662,11111222 
WAVCIS,ioos:station:WAVCIS:CSI16:1,2011-07-01T06:00:00Z,29.4012,-89.0355,10.0,28.614,11111222 
WAVCIS,ioos:station:WAVCIS:CSI16:1,2011-07-01T06:15:00Z,29.4012,-89.0355,10.0,28.659,11111222 
WAVCIS,ioos:station:WAVCIS:CSI16:1,2011-07-01T06:30:00Z,29.4012,-89.0355,10.0,28.689,11111222 
WAVCIS,ioos:station:WAVCIS:CSI16:1,2011-07-01T06:45:00Z,29.4012,-89.0355,10.0,29.175,11111222 
WAVCIS,ioos:station:WAVCIS:CSI16:1,2011-07-01T07:00:00Z,29.4012,-89.0355,10.0,29.571,11111222 
WAVCIS,ioos:station:WAVCIS:CSI16:1,2011-07-01T07:15:00Z,29.4012,-89.0355,10.0,29.937,11111222 
WAVCIS,ioos:station:WAVCIS:CSI16:1,2011-07-01T07:30:00Z,29.4012,-89.0355,10.0,30.677,11111222 
WAVCIS,ioos:station:WAVCIS:CSI16:1,2011-07-01T07:45:00Z,29.4012,-89.0355,10.0,30.501,11111222 
WAVCIS,ioos:station:WAVCIS:CSI16:1,2011-07-01T08:00:00Z,29.4012,-89.0355,10.0,30.525,11111222 
WAVCIS,ioos:station:WAVCIS:CSI16:1,2011-07-01T08:15:00Z,29.4012,-89.0355,10.0,30.502,11111222 
WAVCIS,ioos:station:WAVCIS:CSI16:1,2011-07-01T08:30:00Z,29.4012,-89.0355,10.0,30.349,11111222 
WAVCIS,ioos:station:WAVCIS:CSI16:1,2011-07-01T08:45:00Z,29.4012,-89.0355,10.0,30.245,11111222 
WAVCIS,ioos:station:WAVCIS:CSI16:1,2011-07-01T09:00:00Z,29.4012,-89.0355,10.0,30.025,11111222 
WAVCIS,ioos:station:WAVCIS:CSI16:1,2011-07-01T09:15:00Z,29.4012,-89.0355,10.0,29.89,11111222 
WAVCIS,ioos:station:WAVCIS:CSI16:1,2011-07-01T09:30:00Z,29.4012,-89.0355,10.0,29.736,11111222 
WAVCIS,ioos:station:WAVCIS:CSI16:1,2011-07-01T09:45:00Z,29.4012,-89.0355,10.0,29.698,11111222 
WAVCIS,ioos:station:WAVCIS:CSI16:1,2011-07-01T10:00:00Z,29.4012,-89.0355,10.0,30.005,11111222 
WAVCIS,ioos:station:WAVCIS:CSI16:1,2011-07-01T10:15:00Z,29.4012,-89.0355,10.0,29.06,11111222 
WAVCIS,ioos:station:WAVCIS:CSI16:1,2011-07-01T10:30:00Z,29.4012,-89.0355,10.0,28.938,11111222 
WAVCIS,ioos:station:WAVCIS:CSI16:1,2011-07-01T10:45:00Z,29.4012,-89.0355,10.0,28.775,11111222 
WAVCIS,ioos:station:WAVCIS:CSI16:1,2011-07-01T11:00:00Z,29.4012,-89.0355,10.0,28.383,11111222 
WAVCIS,ioos:station:WAVCIS:CSI16:1,2011-07-01T11:15:00Z,29.4012,-89.0355,10.0,28.566,11111222 
WAVCIS,ioos:station:WAVCIS:CSI16:1,2011-07-01T11:30:00Z,29.4012,-89.0355,10.0,27.71,11111222 
WAVCIS,ioos:station:WAVCIS:CSI16:1,2011-07-01T11:45:00Z,29.4012,-89.0355,10.0,27.991,11111222 
WAVCIS,ioos:station:WAVCIS:CSI16:1,2011-07-01T12:00:00Z,29.4012,-89.0355,10.0,27.573,11111222 
WAVCIS,ioos:station:WAVCIS:CSI16:1,2011-07-01T12:15:00Z,29.4012,-89.0355,10.0,26.472,11111222 
WAVCIS,ioos:station:WAVCIS:CSI16:1,2011-07-01T12:30:00Z,29.4012,-89.0355,10.0,26.512,11111222 
WAVCIS,ioos:station:WAVCIS:CSI16:1,2011-07-01T12:45:00Z,29.4012,-89.0355,10.0,27.476,11111222 
WAVCIS,ioos:station:WAVCIS:CSI16:1,2011-07-01T13:00:00Z,29.4012,-89.0355,10.0,26.88,11111222 
WAVCIS,ioos:station:WAVCIS:CSI16:1,2011-07-01T13:15:00Z,29.4012,-89.0355,10.0,26.866,11111222 
WAVCIS,ioos:station:WAVCIS:CSI16:1,2011-07-01T13:30:00Z,29.4012,-89.0355,10.0,27.003,11111222 
WAVCIS,ioos:station:WAVCIS:CSI16:1,2011-07-01T13:45:00Z,29.4012,-89.0355,10.0,26.77,11111222 
WAVCIS,ioos:station:WAVCIS:CSI16:1,2011-07-01T14:00:00Z,29.4012,-89.0355,10.0,27.039,11111222 
WAVCIS,ioos:station:WAVCIS:CSI16:1,2011-07-01T14:15:00Z,29.4012,-89.0355,10.0,26.915,11111222 
WAVCIS,ioos:station:WAVCIS:CSI16:1,2011-07-01T14:30:00Z,29.4012,-89.0355,10.0,26.9,11111222 
WAVCIS,ioos:station:WAVCIS:CSI16:1,2011-07-01T14:45:00Z,29.4012,-89.0355,10.0,26.842,11111222 
WAVCIS,ioos:station:WAVCIS:CSI16:1,2011-07-01T15:00:00Z,29.4012,-89.0355,10.0,26.801,11111222 
WAVCIS,ioos:station:WAVCIS:CSI16:1,2011-07-01T15:15:00Z,29.4012,-89.0355,10.0,26.788,11111222 
WAVCIS,ioos:station:WAVCIS:CSI16:1,2011-07-01T15:30:00Z,29.4012,-89.0355,10.0,26.665,11111222 
WAVCIS,ioos:station:WAVCIS:CSI16:1,2011-07-01T15:45:00Z,29.4012,-89.0355,10.0,26.605,11111222 
WAVCIS,ioos:station:WAVCIS:CSI16:1,2011-07-01T16:00:00Z,29.4012,-89.0355,10.0,26.516,11111222 
WAVCIS,ioos:station:WAVCIS:CSI16:1,2011-07-01T16:15:00Z,29.4012,-89.0355,10.0,26.556,11111222 
WAVCIS,ioos:station:WAVCIS:CSI16:1,2011-07-01T16:30:00Z,29.4012,-89.0355,10.0,26.222,11111222 
WAVCIS,ioos:station:WAVCIS:CSI16:1,2011-07-01T16:45:00Z,29.4012,-89.0355,10.0,26.805,11111222 
WAVCIS,ioos:station:WAVCIS:CSI16:1,2011-07-01T17:00:00Z,29.4012,-89.0355,10.0,26.225,11111222 
WAVCIS,ioos:station:WAVCIS:CSI16:1,2011-07-01T17:15:00Z,29.4012,-89.0355,10.0,26.101,11111222 
WAVCIS,ioos:station:WAVCIS:CSI16:1,2011-07-01T17:30:00Z,29.4012,-89.0355,10.0,26.386,11111222 
WAVCIS,ioos:station:WAVCIS:CSI16:1,2011-07-01T17:45:00Z,29.4012,-89.0355,10.0,26.092,11111222 
WAVCIS,ioos:station:WAVCIS:CSI16:1,2011-07-01T18:00:00Z,29.4012,-89.0355,10.0,26.761,11111222 
WAVCIS,ioos:station:WAVCIS:CSI16:1,2011-07-01T18:15:00Z,29.4012,-89.0355,10.0,26.096,11111222 
WAVCIS,ioos:station:WAVCIS:CSI16:1,2011-07-01T18:30:00Z,29.4012,-89.0355,10.0,27.059,11111222 
WAVCIS,ioos:station:WAVCIS:CSI16:1,2011-07-01T18:45:00Z,29.4012,-89.0355,10.0,28.32,11111222 
WAVCIS,ioos:station:WAVCIS:CSI16:1,2011-07-01T19:00:00Z,29.4012,-89.0355,10.0,27.916,11111222 
WAVCIS,ioos:station:WAVCIS:CSI16:1,2011-07-01T19:15:00Z,29.4012,-89.0355,10.0,28.106,11111222 
WAVCIS,ioos:station:WAVCIS:CSI16:1,2011-07-01T19:30:00Z,29.4012,-89.0355,10.0,28.197,11111222 
WAVCIS,ioos:station:WAVCIS:CSI16:1,2011-07-01T19:45:00Z,29.4012,-89.0355,10.0,28.452,11111222 
WAVCIS,ioos:station:WAVCIS:CSI16:1,2011-07-01T20:00:00Z,29.4012,-89.0355,10.0,28.454,11111222 
WAVCIS,ioos:station:WAVCIS:CSI16:1,2011-07-01T20:15:00Z,29.4012,-89.0355,10.0,29.18,11111222 
WAVCIS,ioos:station:WAVCIS:CSI16:1,2011-07-01T20:30:00Z,29.4012,-89.0355,10.0,29.865,11111222 
WAVCIS,ioos:station:WAVCIS:CSI16:1,2011-07-01T20:45:00Z,29.4012,-89.0355,10.0,29.335,11111222 
WAVCIS,ioos:station:WAVCIS:CSI16:1,2011-07-01T21:00:00Z,29.4012,-89.0355,10.0,29.828,11111222 
WAVCIS,ioos:station:WAVCIS:CSI16:1,2011-07-01T21:15:00Z,29.4012,-89.0355,10.0,30.19,11111222 
WAVCIS,ioos:station:WAVCIS:CSI16:1,2011-07-01T21:30:00Z,29.4012,-89.0355,10.0,30.028,11111222 
WAVCIS,ioos:station:WAVCIS:CSI16:1,2011-07-01T21:45:00Z,29.4012,-89.0355,10.0,29.656,11111222 
WAVCIS,ioos:station:WAVCIS:CSI16:1,2011-07-01T22:00:00Z,29.4012,-89.0355,10.0,28.782,11111222 
WAVCIS,ioos:station:WAVCIS:CSI16:1,2011-07-01T22:15:00Z,29.4012,-89.0355,10.0,28.753,11111222 
WAVCIS,ioos:station:WAVCIS:CSI16:1,2011-07-01T22:30:00Z,29.4012,-89.0355,10.0,28.92,11111222 
WAVCIS,ioos:station:WAVCIS:CSI16:1,2011-07-01T22:45:00Z,29.4012,-89.0355,10.0,29.31,11111222 
WAVCIS,ioos:station:WAVCIS:CSI16:1,2011-07-01T23:00:00Z,29.4012,-89.0355,10.0,29.245,11111222 
WAVCIS,ioos:station:WAVCIS:CSI16:1,2011-07-01T23:15:00Z,29.4012,-89.0355,10.0,29.527,11111222 
WAVCIS,ioos:station:WAVCIS:CSI16:1,2011-07-01T23:30:00Z,29.4012,-89.0355,10.0,30.429,11111222 
WAVCIS,ioos:station:WAVCIS:CSI16:1,2011-07-01T23:45:00Z,29.4012,-89.0355,10.0,30.255,11111222 
WAVCIS,ioos:station:WAVCIS:CSI16:1,2011-07-02T00:00:00Z,29.4012,-89.0355,10.0,29.886,11111222 
WAVCIS,ioos:station:WAVCIS:CSI16:1,2011-07-02T00:15:00Z,29.4012,-89.0355,10.0,29.795,11111222 
WAVCIS,ioos:station:WAVCIS:CSI16:1,2011-07-02T00:30:00Z,29.4012,-89.0355,10.0,29.975,11111222 
WAVCIS,ioos:station:WAVCIS:CSI16:1,2011-07-02T00:45:00Z,29.4012,-89.0355,10.0,29.962,11111222 
WAVCIS,ioos:station:WAVCIS:CSI16:1,2011-07-02T01:00:00Z,29.4012,-89.0355,10.0,30.574,11111222 
WAVCIS,ioos:station:WAVCIS:CSI16:1,2011-07-02T01:15:00Z,29.4012,-89.0355,10.0,30.839,11111222 
WAVCIS,ioos:station:WAVCIS:CSI16:1,2011-07-02T01:30:00Z,29.4012,-89.0355,10.0,30.501,11111222 
WAVCIS,ioos:station:WAVCIS:CSI16:1,2011-07-02T01:45:00Z,29.4012,-89.0355,10.0,30.681,11111222 
WAVCIS,ioos:station:WAVCIS:CSI16:1,2011-07-02T02:00:00Z,29.4012,-89.0355,10.0,30.533,11111222 
WAVCIS,ioos:station:WAVCIS:CSI16:1,2011-07-02T02:15:00Z,29.4012,-89.0355,10.0,30.701,11111222 
WAVCIS,ioos:station:WAVCIS:CSI16:1,2011-07-02T02:30:00Z,29.4012,-89.0355,10.0,31.333,11111222 
WAVCIS,ioos:station:WAVCIS:CSI16:1,2011-07-02T02:45:00Z,29.4012,-89.0355,10.0,32.177,11111222 
WAVCIS,ioos:station:WAVCIS:CSI16:1,2011-07-02T03:00:00Z,29.4012,-89.0355,10.0,32.562,11111222 
WAVCIS,ioos:station:WAVCIS:CSI16:1,2011-07-02T03:15:00Z,29.4012,-89.0355,10.0,32.438,11111222 
WAVCIS,ioos:station:WAVCIS:CSI16:1,2011-07-02T03:30:00Z,29.4012,-89.0355,10.0,31.817,11111222 
WAVCIS,ioos:station:WAVCIS:CSI16:1,2011-07-02T03:45:00Z,29.4012,-89.0355,10.0,31.003,11111222 
WAVCIS,ioos:station:WAVCIS:CSI16:1,2011-07-02T04:00:00Z,29.4012,-89.0355,10.0,30.487,11111222 
WAVCIS,ioos:station:WAVCIS:CSI16:1,2011-07-02T04:15:00Z,29.4012,-89.0355,10.0,30.61,11111222 
WAVCIS,ioos:station:WAVCIS:CSI16:1,2011-07-02T04:30:00Z,29.4012,-89.0355,10.0,30.358,11111222 
WAVCIS,ioos:station:WAVCIS:CSI16:1,2011-07-02T04:45:00Z,29.4012,-89.0355,10.0,30.784,11111222 
WAVCIS,ioos:station:WAVCIS:CSI16:1,2011-07-02T05:00:00Z,29.4012,-89.0355,10.0,30.853,11111222 
WAVCIS,ioos:station:WAVCIS:CSI16:1,2011-07-02T05:15:00Z,29.4012,-89.0355,10.0,30.874,11111222 
WAVCIS,ioos:station:WAVCIS:CSI16:1,2011-07-02T05:30:00Z,29.4012,-89.0355,10.0,30.684,11111222 
WAVCIS,ioos:station:WAVCIS:CSI16:1,2011-07-02T05:45:00Z,29.4012,-89.0355,10.0,30.573,11111222 
WAVCIS,ioos:station:WAVCIS:CSI16:1,2011-07-02T06:00:00Z,29.4012,-89.0355,10.0,29.391,11111222 
WAVCIS,ioos:station:WAVCIS:CSI16:1,2011-07-02T06:15:00Z,29.4012,-89.0355,10.0,29.577,11111222 
WAVCIS,ioos:station:WAVCIS:CSI16:1,2011-07-02T06:30:00Z,29.4012,-89.0355,10.0,29.254,11111222 
WAVCIS,ioos:station:WAVCIS:CSI16:1,2011-07-02T06:45:00Z,29.4012,-89.0355,10.0,29.308,11111222 
WAVCIS,ioos:station:WAVCIS:CSI16:1,2011-07-02T07:00:00Z,29.4012,-89.0355,10.0,29.604,11111222 
WAVCIS,ioos:station:WAVCIS:CSI16:1,2011-07-02T07:15:00Z,29.4012,-89.0355,10.0,30.33,11111222 
WAVCIS,ioos:station:WAVCIS:CSI16:1,2011-07-02T07:30:00Z,29.4012,-89.0355,10.0,30.412,11111222 
WAVCIS,ioos:station:WAVCIS:CSI16:1,2011-07-02T07:45:00Z,29.4012,-89.0355,10.0,30.47,11111222 
WAVCIS,ioos:station:WAVCIS:CSI16:1,2011-07-02T08:00:00Z,29.4012,-89.0355,10.0,30.208,11111222 
WAVCIS,ioos:station:WAVCIS:CSI16:1,2011-07-02T08:15:00Z,29.4012,-89.0355,10.0,30.171,11111222 
WAVCIS,ioos:station:WAVCIS:CSI16:1,2011-07-02T08:30:00Z,29.4012,-89.0355,10.0,30.137,11111222 
WAVCIS,ioos:station:WAVCIS:CSI16:1,2011-07-02T08:45:00Z,29.4012,-89.0355,10.0,30.167,11111222 
WAVCIS,ioos:station:WAVCIS:CSI16:1,2011-07-02T09:00:00Z,29.4012,-89.0355,10.0,30.23,11111222 
WAVCIS,ioos:station:WAVCIS:CSI16:1,2011-07-02T09:15:00Z,29.4012,-89.0355,10.0,30.237,11111222 
WAVCIS,ioos:station:WAVCIS:CSI16:1,2011-07-02T09:30:00Z,29.4012,-89.0355,10.0,30.195,11111222 
WAVCIS,ioos:station:WAVCIS:CSI16:1,2011-07-02T09:45:00Z,29.4012,-89.0355,10.0,30.081,11111222 
WAVCIS,ioos:station:WAVCIS:CSI16:1,2011-07-02T10:00:00Z,29.4012,-89.0355,10.0,30.005,11111222 
WAVCIS,ioos:station:WAVCIS:CSI16:1,2011-07-02T10:15:00Z,29.4012,-89.0355,10.0,29.927,11111222 
WAVCIS,ioos:station:WAVCIS:CSI16:1,2011-07-02T10:30:00Z,29.4012,-89.0355,10.0,29.975,11111222 
WAVCIS,ioos:station:WAVCIS:CSI16:1,2011-07-02T10:45:00Z,29.4012,-89.0355,10.0,29.825,11111222 
WAVCIS,ioos:station:WAVCIS:CSI16:1,2011-07-02T11:00:00Z,29.4012,-89.0355,10.0,29.842,11111222 
WAVCIS,ioos:station:WAVCIS:CSI16:1,2011-07-02T11:15:00Z,29.4012,-89.0355,10.0,29.722,11111222 
WAVCIS,ioos:station:WAVCIS:CSI16:1,2011-07-02T11:30:00Z,29.4012,-89.0355,10.0,29.399,11111222 
WAVCIS,ioos:station:WAVCIS:CSI16:1,2011-07-02T11:45:00Z,29.4012,-89.0355,10.0,28.983,11111222 
WAVCIS,ioos:station:WAVCIS:CSI16:1,2011-07-02T12:00:00Z,29.4012,-89.0355,10.0,28.5,11111222 
WAVCIS,ioos:station:WAVCIS:CSI16:1,2011-07-02T12:15:00Z,29.4012,-89.0355,10.0,29.184,11111222 
WAVCIS,ioos:station:WAVCIS:CSI16:1,2011-07-02T12:30:00Z,29.4012,-89.0355,10.0,27.347,11111222 
WAVCIS,ioos:station:WAVCIS:CSI16:1,2011-07-02T12:45:00Z,29.4012,-89.0355,10.0,28.135,11111222 
WAVCIS,ioos:station:WAVCIS:CSI16:1,2011-07-02T13:00:00Z,29.4012,-89.0355,10.0,27.677,11111222 
WAVCIS,ioos:station:WAVCIS:CSI16:1,2011-07-02T13:15:00Z,29.4012,-89.0355,10.0,27.476,11111222 
WAVCIS,ioos:station:WAVCIS:CSI16:1,2011-07-02T13:30:00Z,29.4012,-89.0355,10.0,26.956,11111222 
WAVCIS,ioos:station:WAVCIS:CSI16:1,2011-07-02T13:45:00Z,29.4012,-89.0355,10.0,26.692,11111222 
WAVCIS,ioos:station:WAVCIS:CSI16:1,2011-07-02T14:00:00Z,29.4012,-89.0355,10.0,26.25,11111222 
WAVCIS,ioos:station:WAVCIS:CSI16:1,2011-07-02T14:15:00Z,29.4012,-89.0355,10.0,26.978,11111222 
WAVCIS,ioos:station:WAVCIS:CSI16:1,2011-07-02T14:30:00Z,29.4012,-89.0355,10.0,26.568,11111222 
WAVCIS,ioos:station:WAVCIS:CSI16:1,2011-07-02T14:45:00Z,29.4012,-89.0355,10.0,27.033,11111222 
WAVCIS,ioos:station:WAVCIS:CSI16:1,2011-07-02T15:00:00Z,29.4012,-89.0355,10.0,27.324,11111222 
WAVCIS,ioos:station:WAVCIS:CSI16:1,2011-07-02T15:15:00Z,29.4012,-89.0355,10.0,27.946,11111222 
WAVCIS,ioos:station:WAVCIS:CSI16:1,2011-07-02T15:30:00Z,29.4012,-89.0355,10.0,27.399,11111222 
WAVCIS,ioos:station:WAVCIS:CSI16:1,2011-07-02T15:45:00Z,29.4012,-89.0355,10.0,26.944,11111222 
WAVCIS,ioos:station:WAVCIS:CSI16:1,2011-07-02T16:00:00Z,29.4012,-89.0355,10.0,27.011,11111222 
WAVCIS,ioos:station:WAVCIS:CSI16:1,2011-07-02T16:15:00Z,29.4012,-89.0355,10.0,26.924,11111222 
WAVCIS,ioos:station:WAVCIS:CSI16:1,2011-07-02T16:30:00Z,29.4012,-89.0355,10.0,26.827,11111222 
WAVCIS,ioos:station:WAVCIS:CSI16:1,2011-07-02T16:45:00Z,29.4012,-89.0355,10.0,27.323,11111222 
WAVCIS,ioos:station:WAVCIS:CSI16:1,2011-07-02T17:00:00Z,29.4012,-89.0355,10.0,27.189,11111222 
WAVCIS,ioos:station:WAVCIS:CSI16:1,2011-07-02T17:15:00Z,29.4012,-89.0355,10.0,27.384,11111222 
WAVCIS,ioos:station:WAVCIS:CSI16:1,2011-07-02T17:30:00Z,29.4012,-89.0355,10.0,27.613,11111222 
WAVCIS,ioos:station:WAVCIS:CSI16:1,2011-07-02T17:45:00Z,29.4012,-89.0355,10.0,27.609,11111222 
WAVCIS,ioos:station:WAVCIS:CSI16:1,2011-07-02T18:00:00Z,29.4012,-89.0355,10.0,27.536,11111222 
WAVCIS,ioos:station:WAVCIS:CSI16:1,2011-07-02T18:15:00Z,29.4012,-89.0355,10.0,27.107,11111222 
WAVCIS,ioos:station:WAVCIS:CSI16:1,2011-07-02T18:30:00Z,29.4012,-89.0355,10.0,27.748,11111222 
WAVCIS,ioos:station:WAVCIS:CSI16:1,2011-07-02T18:45:00Z,29.4012,-89.0355,10.0,27.728,11111222 
WAVCIS,ioos:station:WAVCIS:CSI16:1,2011-07-02T19:00:00Z,29.4012,-89.0355,10.0,27.999,11111222 
WAVCIS,ioos:station:WAVCIS:CSI16:1,2011-07-02T19:15:00Z,29.4012,-89.0355,10.0,29.033,11111222 
WAVCIS,ioos:station:WAVCIS:CSI16:1,2011-07-02T19:30:00Z,29.4012,-89.0355,10.0,27.981,11111222 
WAVCIS,ioos:station:WAVCIS:CSI16:1,2011-07-02T19:45:00Z,29.4012,-89.0355,10.0,28.623,11111222 
WAVCIS,ioos:station:WAVCIS:CSI16:1,2011-07-02T20:00:00Z,29.4012,-89.0355,10.0,28.549,11111222 
WAVCIS,ioos:station:WAVCIS:CSI16:1,2011-07-02T20:15:00Z,29.4012,-89.0355,10.0,28.543,11111222 
WAVCIS,ioos:station:WAVCIS:CSI16:1,2011-07-02T20:30:00Z,29.4012,-89.0355,10.0,29.382,11111222 
WAVCIS,ioos:station:WAVCIS:CSI16:1,2011-07-02T20:45:00Z,29.4012,-89.0355,10.0,29.808,11111222 
WAVCIS,ioos:station:WAVCIS:CSI16:1,2011-07-02T21:00:00Z,29.4012,-89.0355,10.0,30.025,11111222 
WAVCIS,ioos:station:WAVCIS:CSI16:1,2011-07-02T21:15:00Z,29.4012,-89.0355,10.0,30.13,11111222 
WAVCIS,ioos:station:WAVCIS:CSI16:1,2011-07-02T21:30:00Z,29.4012,-89.0355,10.0,30.21,11111222 
WAVCIS,ioos:station:WAVCIS:CSI16:1,2011-07-02T21:45:00Z,29.4012,-89.0355,10.0,30.514,11111222 
WAVCIS,ioos:station:WAVCIS:CSI16:1,2011-07-02T22:00:00Z,29.4012,-89.0355,10.0,31.036,11111222 
WAVCIS,ioos:station:WAVCIS:CSI16:1,2011-07-02T22:15:00Z,29.4012,-89.0355,10.0,32.415,11111222 
WAVCIS,ioos:station:WAVCIS:CSI16:1,2011-07-02T22:30:00Z,29.4012,-89.0355,10.0,32.76,11111222 
WAVCIS,ioos:station:WAVCIS:CSI16:1,2011-07-02T22:45:00Z,29.4012,-89.0355,10.0,33.173,11111222 
WAVCIS,ioos:station:WAVCIS:CSI16:1,2011-07-02T23:00:00Z,29.4012,-89.0355,10.0,32.155,11111222 
WAVCIS,ioos:station:WAVCIS:CSI16:1,2011-07-02T23:15:00Z,29.4012,-89.0355,10.0,31.634,11111222 
WAVCIS,ioos:station:WAVCIS:CSI16:1,2011-07-02T23:30:00Z,29.4012,-89.0355,10.0,31.197,11111222 
WAVCIS,ioos:station:WAVCIS:CSI16:1,2011-07-02T23:45:00Z,29.4012,-89.0355,10.0,30.971,11111222 
WAVCIS,ioos:station:WAVCIS:CSI16:1,2011-07-03T00:00:00Z,29.4012,-89.0355,10.0,30.959,11111222 
WAVCIS,ioos:station:WAVCIS:CSI16:1,2011-07-03T00:15:00Z,29.4012,-89.0355,10.0,31.78,11111222 
WAVCIS,ioos:station:WAVCIS:CSI16:1,2011-07-03T00:30:00Z,29.4012,-89.0355,10.0,31.781,11111222 
WAVCIS,ioos:station:WAVCIS:CSI16:1,2011-07-03T00:45:00Z,29.4012,-89.0355,10.0,31.529,11111222 
WAVCIS,ioos:station:WAVCIS:CSI16:1,2011-07-03T01:00:00Z,29.4012,-89.0355,10.0,31.199,11111222 
WAVCIS,ioos:station:WAVCIS:CSI16:1,2011-07-03T01:15:00Z,29.4012,-89.0355,10.0,31.131,11111222 
WAVCIS,ioos:station:WAVCIS:CSI16:1,2011-07-03T01:30:00Z,29.4012,-89.0355,10.0,31.046,11111222 
WAVCIS,ioos:station:WAVCIS:CSI16:1,2011-07-03T01:45:00Z,29.4012,-89.0355,10.0,31.065,11111222 
WAVCIS,ioos:station:WAVCIS:CSI16:1,2011-07-03T02:00:00Z,29.4012,-89.0355,10.0,32.151,11111222 
WAVCIS,ioos:station:WAVCIS:CSI16:1,2011-07-03T02:15:00Z,29.4012,-89.0355,10.0,31.493,11111222 
WAVCIS,ioos:station:WAVCIS:CSI16:1,2011-07-03T02:30:00Z,29.4012,-89.0355,10.0,31.478,11111222 
WAVCIS,ioos:station:WAVCIS:CSI16:1,2011-07-03T02:45:00Z,29.4012,-89.0355,10.0,31.656,11111222 
WAVCIS,ioos:station:WAVCIS:CSI16:1,2011-07-03T03:00:00Z,29.4012,-89.0355,10.0,30.305,11111222 
WAVCIS,ioos:station:WAVCIS:CSI16:1,2011-07-03T03:15:00Z,29.4012,-89.0355,10.0,30.858,11111222 
WAVCIS,ioos:station:WAVCIS:CSI16:1,2011-07-03T03:30:00Z,29.4012,-89.0355,10.0,31.159,11111222 
WAVCIS,ioos:station:WAVCIS:CSI16:1,2011-07-03T03:45:00Z,29.4012,-89.0355,10.0,31.649,11111222 
WAVCIS,ioos:station:WAVCIS:CSI16:1,2011-07-03T04:00:00Z,29.4012,-89.0355,10.0,32.067,11111222 
WAVCIS,ioos:station:WAVCIS:CSI16:1,2011-07-03T04:15:00Z,29.4012,-89.0355,10.0,32.04,11111222 
WAVCIS,ioos:station:WAVCIS:CSI16:1,2011-07-03T04:30:00Z,29.4012,-89.0355,10.0,31.941,11111222 
WAVCIS,ioos:station:WAVCIS:CSI16:1,2011-07-03T04:45:00Z,29.4012,-89.0355,10.0,32.225,11111222 
WAVCIS,ioos:station:WAVCIS:CSI16:1,2011-07-03T05:00:00Z,29.4012,-89.0355,10.0,32.264,11111222 
WAVCIS,ioos:station:WAVCIS:CSI16:1,2011-07-03T05:15:00Z,29.4012,-89.0355,10.0,31.822,11111222 
WAVCIS,ioos:station:WAVCIS:CSI16:1,2011-07-03T05:30:00Z,29.4012,-89.0355,10.0,31.746,11111222 
WAVCIS,ioos:station:WAVCIS:CSI16:1,2011-07-03T05:45:00Z,29.4012,-89.0355,10.0,32.123,11111222 
WAVCIS,ioos:station:WAVCIS:CSI16:1,2011-07-03T06:00:00Z,29.4012,-89.0355,10.0,32.142,11111222 
WAVCIS,ioos:station:WAVCIS:CSI16:1,2011-07-03T06:15:00Z,29.4012,-89.0355,10.0,31.921,11111222 
WAVCIS,ioos:station:WAVCIS:CSI16:1,2011-07-03T06:30:00Z,29.4012,-89.0355,10.0,31.811,11111222 
WAVCIS,ioos:station:WAVCIS:CSI16:1,2011-07-03T06:45:00Z,29.4012,-89.0355,10.0,31.842,11111222 
WAVCIS,ioos:station:WAVCIS:CSI16:1,2011-07-03T07:00:00Z,29.4012,-89.0355,10.0,31.75,11111222 
WAVCIS,ioos:station:WAVCIS:CSI16:1,2011-07-03T07:15:00Z,29.4012,-89.0355,10.0,31.376,11111222 
WAVCIS,ioos:station:WAVCIS:CSI16:1,2011-07-03T07:30:00Z,29.4012,-89.0355,10.0,31.174,11111222 
WAVCIS,ioos:station:WAVCIS:CSI16:1,2011-07-03T07:45:00Z,29.4012,-89.0355,10.0,30.957,11111222 
WAVCIS,ioos:station:WAVCIS:CSI16:1,2011-07-03T08:00:00Z,29.4012,-89.0355,10.0,30.721,11111222 
WAVCIS,ioos:station:WAVCIS:CSI16:1,2011-07-03T08:15:00Z,29.4012,-89.0355,10.0,30.44,11111222 
WAVCIS,ioos:station:WAVCIS:CSI16:1,2011-07-03T08:30:00Z,29.4012,-89.0355,10.0,30.268,11111222 
WAVCIS,ioos:station:WAVCIS:CSI16:1,2011-07-03T08:45:00Z,29.4012,-89.0355,10.0,30.153,11111222 
WAVCIS,ioos:station:WAVCIS:CSI16:1,2011-07-03T09:00:00Z,29.4012,-89.0355,10.0,29.893,11111222 
WAVCIS,ioos:station:WAVCIS:CSI16:1,2011-07-03T09:15:00Z,29.4012,-89.0355,10.0,29.826,11111222 
WAVCIS,ioos:station:WAVCIS:CSI16:1,2011-07-03T09:30:00Z,29.4012,-89.0355,10.0,29.745,11111222 
WAVCIS,ioos:station:WAVCIS:CSI16:1,2011-07-03T09:45:00Z,29.4012,-89.0355,10.0,29.668,11111222 
WAVCIS,ioos:station:WAVCIS:CSI16:1,2011-07-03T10:00:00Z,29.4012,-89.0355,10.0,29.577,11111222 
WAVCIS,ioos:station:WAVCIS:CSI16:1,2011-07-03T10:15:00Z,29.4012,-89.0355,10.0,29.493,11111222 
WAVCIS,ioos:station:WAVCIS:CSI16:1,2011-07-03T10:30:00Z,29.4012,-89.0355,10.0,29.319,11111222 
WAVCIS,ioos:station:WAVCIS:CSI16:1,2011-07-03T10:45:00Z,29.4012,-89.0355,10.0,29.102,11111222 
WAVCIS,ioos:station:WAVCIS:CSI16:1,2011-07-03T11:00:00Z,29.4012,-89.0355,10.0,28.838,11111222 
WAVCIS,ioos:station:WAVCIS:CSI16:1,2011-07-03T11:15:00Z,29.4012,-89.0355,10.0,28.973,11111222 
WAVCIS,ioos:station:WAVCIS:CSI16:1,2011-07-03T11:30:00Z,29.4012,-89.0355,10.0,29.018,11111222 
WAVCIS,ioos:station:WAVCIS:CSI16:1,2011-07-03T11:45:00Z,29.4012,-89.0355,10.0,29.154,11111222 
WAVCIS,ioos:station:WAVCIS:CSI16:1,2011-07-03T12:00:00Z,29.4012,-89.0355,10.0,28.015,11111222 
WAVCIS,ioos:station:WAVCIS:CSI16:1,2011-07-03T12:15:00Z,29.4012,-89.0355,10.0,29.045,11111222 
WAVCIS,ioos:station:WAVCIS:CSI16:1,2011-07-03T12:30:00Z,29.4012,-89.0355,10.0,28.783,11111222 
WAVCIS,ioos:station:WAVCIS:CSI16:1,2011-07-03T12:45:00Z,29.4012,-89.0355,10.0,28.566,11111222 
WAVCIS,ioos:station:WAVCIS:CSI16:1,2011-07-03T13:00:00Z,29.4012,-89.0355,10.0,28.503,11111222 
WAVCIS,ioos:station:WAVCIS:CSI16:1,2011-07-03T13:15:00Z,29.4012,-89.0355,10.0,28.463,11111222 
WAVCIS,ioos:station:WAVCIS:CSI16:1,2011-07-03T13:30:00Z,29.4012,-89.0355,10.0,28.718,11111222 
WAVCIS,ioos:station:WAVCIS:CSI16:1,2011-07-03T13:45:00Z,29.4012,-89.0355,10.0,28.856,11111222 
WAVCIS,ioos:station:WAVCIS:CSI16:1,2011-07-03T14:00:00Z,29.4012,-89.0355,10.0,28.776,11111222 
WAVCIS,ioos:station:WAVCIS:CSI16:1,2011-07-03T14:15:00Z,29.4012,-89.0355,10.0,28.326,11111222 
WAVCIS,ioos:station:WAVCIS:CSI16:1,2011-07-03T14:30:00Z,29.4012,-89.0355,10.0,28.533,11111222 
WAVCIS,ioos:station:WAVCIS:CSI16:1,2011-07-03T14:45:00Z,29.4012,-89.0355,10.0,28.639,11111222 